Location: Unspecified
(0.0000°N, 0.0000°E)
Time: 14:14:13
(UTC+00:00)

Tiros 1 - All Passes

Search period start: 22 September 2014 00:00
Search period end: 02 October 2014 00:00
Orbit: 633 x 668 km, 48.4° (Epoch: 21 September)

Date Brightness Start Highest point End Pass type
(mag) Time Alt. Az. Time Alt. Az. Time Alt. Az.
22 Sep - 06:51:53 10° SSW 06:56:20 43° SE 07:00:49 10° ENE daylight
22 Sep - 08:35:49 10° W 08:38:28 15° NW 08:41:08 10° NNW daylight
22 Sep - 19:05:13 10° NW 19:09:58 82° NE 19:14:40 10° SE visible
23 Sep - 05:39:25 10° SSE 05:41:14 12° SE 05:43:04 10° ESE daylight
23 Sep - 07:18:48 10° SW 07:23:22 53° NW 07:27:58 10° NNE daylight
23 Sep - 17:51:13 10° N 17:54:54 22° NE 17:58:34 10° ESE daylight
23 Sep - 19:32:56 10° WNW 19:37:00 28° SW 19:41:03 10° S visible
24 Sep - 06:03:59 10° SSW 06:08:21 39° SE 06:12:45 10° ENE daylight
24 Sep - 07:47:37 10° W 07:50:28 16° NW 07:53:21 10° NNW daylight
24 Sep - 18:17:14 10° NW 18:21:59 76° NE 18:26:41 10° SE visible
25 Sep - 04:51:56 10° SSE 04:53:15 11° SE 04:54:34 10° ESE visible
25 Sep - 06:30:48 10° SW 06:35:23 57° NW 06:40:01 10° NNE daylight
25 Sep - 17:03:21 10° N 17:06:54 21° NE 17:10:27 10° E daylight
25 Sep - 18:44:50 10° WNW 18:49:01 31° SW 18:53:10 10° S visible
26 Sep - 05:16:04 10° SSW 05:20:22 36° SE 05:24:41 10° ENE visible
26 Sep - 06:59:26 10° W 07:02:29 17° NW 07:05:33 10° N daylight
26 Sep - 17:29:14 10° NNW 17:33:59 70° NE 17:38:42 10° SE daylight
27 Sep - 04:04:56 10° SE 04:05:15 10° SE 04:05:33 10° SE visible
27 Sep - 05:42:48 10° SW 05:47:24 62° NW 05:52:02 10° NNE daylight
27 Sep - 16:15:29 10° N 16:18:54 19° NE 16:22:18 10° E daylight
27 Sep - 17:56:44 10° WNW 18:01:01 33° SW 18:05:17 10° SSE daylight
28 Sep - 04:28:10 10° SSW 04:32:23 34° SE 04:36:36 10° ENE visible
28 Sep - 06:11:16 10° W 06:14:29 18° NW 06:17:43 10° N daylight
28 Sep - 16:41:15 10° NNW 16:45:59 65° NE 16:50:41 10° SE daylight
28 Sep - 18:28:01 10° SW 18:28:09 10° SW 18:28:17 10° SW visible
29 Sep - 04:54:48 10° SW 04:59:24 67° NW 05:04:03 10° NNE visible
29 Sep - 15:27:38 10° N 15:30:54 18° NE 15:34:09 10° E daylight
29 Sep - 17:08:39 10° WNW 17:13:01 36° SW 17:17:22 10° SSE daylight
30 Sep - 03:40:16 10° SSW 03:44:23 31° SE 03:48:31 10° ENE visible
30 Sep - 05:23:07 10° W 05:26:29 20° NW 05:29:51 10° N visible
30 Sep - 15:53:15 10° NNW 15:57:59 60° NE 16:02:40 10° SE daylight
30 Sep - 17:38:50 10° WSW 17:40:08 11° SW 17:41:27 10° SSW daylight
01 Oct - 04:06:48 10° SW 04:11:25 73° NW 04:16:04 10° NNE visible
01 Oct - 14:39:48 10° N 14:42:53 17° NE 14:45:57 10° E daylight
01 Oct - 16:20:33 10° WNW 16:25:00 39° SW 16:29:27 10° SSE daylight
